Regional Weather Roundup
Issued by NWS

Home | Current Version | Previous Version | Graphics & Text | Print | Product List | Glossary On
Versions: 1 2 3 4 5 6 7 8 9 10 11 12 13 14 15 16 17 18 19 20 21 22 23 24 25 26 27 28 29 30 31 32 33 34 35 36 37 38 39 40 41 42 43 44 45 46 47 48 49 50
000
ASUS43 KFSD 311302
RWRSD

WEATHER ROUNDUP FOR SOUTH DAKOTA
NATIONAL WEATHER SERVICE SIOUX FALLS SD
800 AM CDT MON AUG 31 2015

NOTE: "FAIR" INDICATES FEW OR NO CLOUDS BELOW 12,000 FEET WITH NO
SIGNIFICANT WEATHER AND/OR OBSTRUCTIONS TO VISIBILITY.


SDZ001>005-009-010-012>017-311400-
NORTHWEST AND NORTH CENTRAL SOUTH DAKOTA

CITY           SKY/WX    TMP DP  RH WIND       PRES   REMARKS
FAITH            N/A     65  51  60 N17       29.82R
MOBRIDGE       MOCLDY    69  63  81 NW13      29.70R HAZE
$$

SDZ012>016-024>037-041>051-057-063-072>074-311400-
SOUTHWEST AND SOUTH CENTRAL SOUTH DAKOTA

CITY           SKY/WX    TMP DP  RH WIND       PRES   REMARKS
RAPID CTY ARPT CLOUDY    68  53  58 N23G32    29.91R
PIERRE         CLOUDY    72  52  49 S3        29.71R
CUSTER         CLOUDY    62  45  53 CALM      30.04R
ELLSWORTH AFB  CLOUDY    68  53  59 NW25G33   29.91R
PHILIP         CLOUDY    74  55  51 W9        29.79R
PINE RIDGE     PTCLDY    67  51  56 CALM      29.90R
WINNER         FAIR      72  53  51 S23G30    29.78R
$$

SDZ004>011-016>023-039-040-311400-
NORTHEAST SOUTH DAKOTA

CITY           SKY/WX    TMP DP  RH WIND       PRES   REMARKS
ABERDEEN       SUNNY     68  62  81 S15G21    29.71R
WATERTOWN      SUNNY     66  62  87 S17G25    29.79F
BROOKINGS      PTSUNNY   64  61  88 S12       29.89S
$$

SDZ017-020-022-023-036>040-048>070-311400-
SOUTHEAST SOUTH DAKOTA

CITY           SKY/WX    TMP DP  RH WIND       PRES   REMARKS
SIOUX FALLS    MOSUNNY   66  64  93 S12       29.89S
HURON          SUNNY     67  63  87 S14G24    29.76S
MITCHELL       SUNNY     67  64  90 S12       29.82R
YANKTON        SUNNY     66  63  88 S5        29.88R
$$

ABBREVIATIONS USED IN REMARKS
   TC - TEMPERATURE IN CELSIUS
  WCI - WIND CHILL INDEX
   HX - HEAT INDEX
  VSB - VISIBILITY



USA.gov is the U.S. government's official web portal to all federal, state and local government web resources and services.